Location: Carson
(33.8314°N, 118.2820°W)
Time: 12:53:31
(UTC+00:00)

ADEOS - Pass Details

Date: 23 November 2020
Orbit: 792 x 795 km, 98.9° (Epoch: 21 January)

Event Time Altitude Azimuth Distance (km) Brightness Sun altitude
Rises 12:26:04 0° 13° (NNE) 3,301 6.8 -26.1°
Reaches altitude 10° 12:28:24 10° 13° (NNE) 2,368 6.1 -25.7°
Maximum altitude 12:33:38 89° 290° (WNW) 799 3.4 -24.6°
Drops below altitude 10° 12:38:51 10° 195° (SSW) 2,352 6.0 -23.5°
Sets 12:41:09 0° 195° (SSW) 3,277 6.7 -23.1°
